[[{"header":{"parameterUnit":"m.s-1","parameterCategory":1,"la1":30.2991,"la2":30.254,"lo1":-89.0895,"lo2":-89.0444,"dy":0.0017,"dx":0.0017,"nx":28,"ny":28,"refTime":"2025-05-26T03:00:00:Z","depth":0,"parameterNumber":2,"parameterNumberName":"U-component_of_WINDS"},"data":[0,0,0,0,0,0,0,0,0,0,0,0,0,0,0,0,0,0,0,0,0,0,0,0,0,0,0,0,0,0,0,0,0,0,0,0,0,0,0,0,0,0,0,0,0,0,0,0,0,0,0,0,0,0,0,0,0,0,2.7717,2.7718,0,2.7765,2.7766,2.7766,2.7721,2.7719,2.7718,2.7716,2.7764,2.7767,2.777,0,0,0,0,0,0,0,0,0,0,0,0,0,2.7585,2.7588,2.7717,2.7718,2.7718,2.7765,2.7766,2.7766,2.7722,2.7719,2.7717,2.7715,2.7763,2.7766,2.777,0,0,0,0,0,0,0,0,0,0,0,0,0,2.7639,2.7589,2.7717,2.7702,2.7701,2.7765,2.7766,2.7766,2.7722,2.7719,2.7717,2.7714,2.7762,2.7766,2.777,2.7852,0,0,2.7784,2.7786,0,0,0,0,0,0,0,0,2.7636,2.7643,2.7703,2.7703,2.7702,2.7734,2.7736,2.7795,2.7723,2.7714,2.7716,2.7713,2.7756,2.7761,2.7776,2.7854,2.7856,2.7784,2.7787,2.7789,2.779,0,0,0,0,0,0,0,2.7632,2.7641,2.7736,2.7704,2.7703,2.7692,2.7696,2.7747,2.775,2.7715,2.7711,2.7718,2.7755,2.7772,2.7776,2.7856,2.7784,2.7788,2.7791,2.7793,2.8001,2.8004,0,0,0,0,0,0,2.763,2.7638,2.7734,2.7737,2.7662,2.7696,2.7701,2.7727,2.7749,2.775,2.772,2.7715,2.7765,2.7771,2.7778,2.7872,2.7789,2.7793,2.7795,2.7998,2.8002,2.8005,0,0,0,0,0,0,2.7627,2.7639,2.7733,2.7687,2.7698,2.7701,2.773,2.7729,2.7745,2.7753,2.7753,2.7736,2.7763,2.7772,2.7833,2.7873,2.7795,2.7799,2.7995,2.7999,2.8003,2.8063,0,0,0,0,0,0,2.7624,2.7638,2.767,2.7688,2.7701,2.7788,2.7733,2.7732,2.7753,2.7748,2.7768,2.7769,2.7762,2.7827,2.7837,2.7878,2.7802,2.7991,2.7997,2.8002,2.8057,2.8069,2.8078,0,0,0,0,0,2.7619,2.7685,2.7672,2.7684,2.774,2.779,2.7797,2.7788,2.7757,2.7788,2.7792,2.7768,2.7868,2.7833,2.7845,2.7888,2.7988,2.7995,2.8001,2.8052,2.8066,2.8078,0,0,0,0,0,0,2.7671,2.7687,2.7672,2.7746,2.7767,2.7782,2.7821,2.7803,2.7833,2.7827,2.7814,2.7819,2.7883,2.7892,2.7853,2.7966,2.7923,2.7932,2.7958,2.7971,2.7981,2.7977,2.7806,0,0,0,0,0,2.7691,2.7731,2.7743,2.7807,2.7818,2.7818,2.7839,2.783,2.7851,2.786,2.7869,2.789,2.7925,2.7949,2.7982,2.8059,2.8061,2.8094,2.8104,2.8113,2.812,2.8159,2.8173,2.8026,2.8026,2.8026,0,0,2.7733,2.7747,2.7772,2.7817,2.7832,2.7873,2.7826,2.7871,2.79,2.7867,2.7924,2.7932,2.7954,2.8023,2.8053,2.8032,2.8162,2.8121,2.8128,2.8131,2.8167,2.8181,2.8193,2.803,2.803,2.8029,0,0,2.7829,2.7844,2.7898,2.7914,2.7937,2.7937,2.795,2.7968,2.7972,2.803,2.8005,2.8039,2.8102,2.8118,2.8134,2.8236,2.8214,2.8247,2.8301,2.8339,2.8351,2.8361,2.8395,2.8407,2.8255,2.8255,2.8255,0,2.7877,2.7938,2.7928,2.7974,2.7994,2.7966,2.8019,2.8035,2.8068,2.8082,2.8058,2.8134,2.8147,2.8218,2.8243,2.8258,2.8271,2.8243,2.835,2.836,2.837,2.8401,2.8415,2.8259,2.8258,2.8258,2.8257,0,2.7995,2.8037,2.8078,2.811,2.8134,2.8184,2.8181,2.8207,2.8196,2.8198,2.8256,2.8271,2.8306,2.8323,2.8313,2.8392,2.8377,2.8352,2.8308,2.8387,2.8417,2.8429,2.8264,2.8263,2.8261,2.8261,0,0,2.8123,2.815,2.8164,2.8178,2.8202,2.8233,2.8282,2.8316,2.8337,2.8361,2.84,2.8453,2.8429,2.8448,2.844,2.8473,2.855,2.8444,2.8444,2.8461,2.8635,2.8651,2.8666,2.8536,2.8539,2.8541,2.8632,0,2.8218,2.8302,2.8294,2.8373,2.841,2.8384,2.8426,2.8444,2.8447,2.8479,2.8482,2.8519,2.8486,2.8497,2.8529,2.8533,2.8584,2.8527,2.857,2.8572,2.8563,2.8682,2.87,2.8786,2.8644,2.8646,2.8647,0,2.8339,2.8367,2.845,2.8466,2.8481,2.8519,2.8549,2.858,2.86,2.86,2.8621,2.8606,2.8653,2.861,2.8673,2.8635,2.8652,2.8657,2.866,2.8661,2.8612,2.8684,2.8813,2.8825,2.8666,2.8664,2.8663,0,2.8421,2.848,2.8536,2.8549,2.857,2.8597,2.8607,2.8624,2.8645,2.8671,2.8684,2.8715,2.8732,2.8756,2.875,2.872,2.8815,2.8771,2.8814,2.8814,2.8833,2.8831,2.8964,2.8849,2.8849,2.8848,2.8848,0,2.8526,2.8577,2.8573,2.8607,2.8663,2.8654,2.8709,2.8715,2.8731,2.8765,2.8745,2.8778,2.8769,2.8801,2.8797,2.8849,2.8857,2.8857,2.8855,2.8857,2.8857,2.8867,2.8859,2.8852,2.8851,2.885,2.885,0,2.8626,2.8626,2.8685,2.8701,2.8705,2.8746,2.8758,2.879,2.8792,2.8835,2.8845,2.8847,2.8883,2.888,2.8922,2.8919,2.8982,2.8974,2.8975,2.8972,2.9014,2.9009,2.9155,2.9172,2.9049,2.905,2.9051,0,2.8692,2.873,2.875,2.8771,2.8783,2.8819,2.8839,2.8831,2.8854,2.8879,2.8907,2.8942,2.8969,2.9028,2.9033,2.9064,2.9055,2.9104,2.9059,2.906,2.9052,2.9049,2.9051,2.9112,2.9113,2.9114,2.9115,0,2.8807,2.8805,2.8836,2.8867,2.8892,2.8916,2.8937,2.8956,2.895,2.8976,2.9013,2.9034,2.9076,2.911,2.9139,2.9148,2.913,2.913,2.914,2.9142,2.914,2.9139,2.8996,2.9126,2.9124,2.9124,2.9123,2.9123,2.889,2.8922,2.894,2.8975,2.8991,2.9011,2.9041,2.9046,2.9077,2.911,2.9104,2.9145,2.9163,2.92,2.9212,2.9244,2.9226,2.9242,2.9246,2.925,2.9253,2.9137,2.9249,2.9249,2.9249,2.9249,2.9248,0,2.9002,2.9013,2.9045,2.9075,2.9102,2.9084,2.9107,2.913,2.9166,2.9185,2.9212,2.9253,2.9286,2.9293,2.9324,2.9348,2.934,2.9356,2.9353,2.9354,2.9269,2.9255,2.9361,2.9361,2.9361,2.9361,2.9361,2.9361,2.9063,2.9116,2.9116,2.9175,2.9185,2.9225,2.9239,2.9257,2.9272,2.9319,2.9346,2.9351,2.9364,2.9396,2.9425,2.9426,2.9437,2.9456,2.9453,2.9372,2.9361,2.935,2.9337,2.9459,2.9459,2.9536,2.9537,2.9537]},{"header":{"parameterUnit":"m.s-1","parameterCategory":1,"la1":30.2991,"la2":30.254,"lo1":-89.0895,"lo2":-89.0444,"dy":0.0017,"dx":0.0017,"nx":28,"ny":28,"refTime":"2025-05-26T03:00:00:Z","depth":0,"parameterNumber":3,"parameterNumberName":"V-component_of_WINDS"},"data":[0,0,0,0,0,0,0,0,0,0,0,0,0,0,0,0,0,0,0,0,0,0,0,0,0,0,0,0,0,0,0,0,0,0,0,0,0,0,0,0,0,0,0,0,0,0,0,0,0,0,0,0,0,0,0,0,0,0,3.6967,3.6969,0,3.7142,3.7144,3.7146,3.7161,3.7159,3.7157,3.7156,3.7334,3.734,3.7347,0,0,0,0,0,0,0,0,0,0,0,0,0,3.6647,3.6652,3.6967,3.6969,3.6971,3.7141,3.7144,3.7146,3.7161,3.7159,3.7157,3.7155,3.7332,3.7339,3.7347,0,0,0,0,0,0,0,0,0,0,0,0,0,3.68,3.6654,3.6967,3.7,3.7004,3.7141,3.7144,3.7147,3.7162,3.7159,3.7156,3.7154,3.7329,3.7339,3.7348,3.7464,0,0,3.7378,3.7382,0,0,0,0,0,0,0,0,3.6791,3.6812,3.6993,3.6998,3.7003,3.7127,3.7096,3.7253,3.7163,3.7102,3.7156,3.7152,3.7267,3.7282,3.7321,3.7472,3.748,3.7379,3.7385,3.7389,3.7392,0,0,0,0,0,0,0,3.678,3.6804,3.7036,3.6995,3.7002,3.7005,3.7024,3.7126,3.7198,3.7107,3.7109,3.7129,3.7269,3.7311,3.7325,3.7482,3.7378,3.7387,3.7393,3.7397,3.7737,3.774,0,0,0,0,0,0,3.6764,3.6795,3.7031,3.7041,3.6888,3.7013,3.7034,3.709,3.7197,3.7211,3.7131,3.7129,3.7296,3.7314,3.7331,3.7473,3.7389,3.7398,3.7403,3.7734,3.7738,3.7741,0,0,0,0,0,0,3.6757,3.6785,3.7024,3.6919,3.695,3.7022,3.7084,3.7095,3.7137,3.7215,3.7228,3.7161,3.7295,3.7318,3.7431,3.748,3.7402,3.7411,3.773,3.7735,3.7739,3.7759,0,0,0,0,0,0,3.6748,3.6782,3.6827,3.692,3.6955,3.712,3.7087,3.71,3.7153,3.7152,3.7246,3.7259,3.7294,3.7416,3.744,3.7492,3.7419,3.7726,3.7732,3.7738,3.7754,3.7764,3.7772,0,0,0,0,0,3.6736,3.6825,3.6829,3.6857,3.7013,3.7123,3.7143,3.7182,3.7157,3.7203,3.7253,3.7256,3.747,3.7428,3.7455,3.751,3.7723,3.773,3.7737,3.775,3.7762,3.7771,0,0,0,0,0,0,3.6736,3.6838,3.6843,3.6965,3.7035,3.7125,3.7184,3.7193,3.7271,3.7267,3.7311,3.7332,3.7444,3.7488,3.7439,3.7627,3.7594,3.7607,3.7594,3.7606,3.7615,3.7602,3.7427,0,0,0,0,0,3.675,3.6832,3.6916,3.7016,3.7051,3.7111,3.7161,3.7184,3.7259,3.7289,3.7347,3.7419,3.7503,3.7557,3.7638,3.776,3.7781,3.7812,3.7821,3.7827,3.7838,3.7906,3.7921,3.7765,3.7765,3.7765,0,0,3.6781,3.6846,3.6895,3.7017,3.7075,3.7158,3.7136,3.7225,3.7287,3.7302,3.7412,3.7458,3.7541,3.7659,3.7714,3.77,3.7886,3.7837,3.7842,3.7849,3.7915,3.793,3.7943,3.777,3.7769,3.7768,0,0,3.6878,3.6936,3.7025,3.7083,3.717,3.7209,3.7231,3.732,3.7351,3.7462,3.7475,3.7549,3.7692,3.7751,3.7799,3.7919,3.7924,3.7944,3.799,3.8056,3.8068,3.8079,3.8121,3.8136,3.7954,3.7954,3.7954,0,3.6905,3.7031,3.707,3.7159,3.7212,3.7229,3.732,3.7374,3.7482,3.7519,3.7501,3.7681,3.7738,3.787,3.7899,3.7938,3.7963,3.7933,3.8063,3.8075,3.8086,3.8126,3.8142,3.7956,3.7956,3.7956,3.7956,0,3.7059,3.7146,3.7208,3.7312,3.7372,3.7462,3.7514,3.757,3.7588,3.763,3.7743,3.7812,3.7907,3.794,3.7959,3.8075,3.8064,3.8054,3.8021,3.8101,3.8141,3.8157,3.7959,3.7958,3.7958,3.7957,0,0,3.7162,3.7287,3.7309,3.7356,3.7453,3.7521,3.7611,3.7704,3.7751,3.7826,3.7902,3.8022,3.8014,3.8069,3.8094,3.8152,3.8242,3.8135,3.8138,3.8152,3.8373,3.838,3.8397,3.8246,3.8249,3.8251,3.8366,0,3.727,3.743,3.7468,3.7606,3.7686,3.7704,3.7782,3.7849,3.789,3.7965,3.801,3.8095,3.8077,3.8111,3.8168,3.8218,3.8286,3.8211,3.8317,3.832,3.8295,3.8418,3.8425,3.853,3.8382,3.8385,3.8387,0,3.7418,3.7496,3.7641,3.7727,3.7762,3.7832,3.792,3.7991,3.8068,3.8094,3.8155,3.8175,3.8268,3.8231,3.836,3.8308,3.8354,3.8385,3.839,3.8401,3.8358,3.8432,3.8565,3.8581,3.8411,3.8409,3.8407,0,3.7478,3.7619,3.7724,3.7764,3.7867,3.7916,3.7961,3.8035,3.8089,3.8166,3.8201,3.8288,3.8336,3.8403,3.8445,3.8414,3.8571,3.8537,3.8595,3.8594,3.8627,3.8624,3.8769,3.8657,3.8656,3.8656,3.8656,0,3.7595,3.7683,3.7752,3.7817,3.7916,3.7959,3.8056,3.8101,3.8167,3.824,3.8261,3.8329,3.8381,3.8457,3.849,3.8592,3.8614,3.8637,3.8645,3.8635,3.8632,3.8666,3.8659,3.866,3.8659,3.8658,3.8658,0,3.7679,3.7729,3.7845,3.7933,3.7957,3.8026,3.8101,3.8164,3.8206,3.8299,3.8323,3.8388,3.8478,3.8527,3.8639,3.8662,3.8776,3.878,3.875,3.8753,3.8808,3.8802,3.8979,3.9004,3.8875,3.8876,3.8877,0,3.775,3.7819,3.7914,3.7964,3.801,3.8092,3.8147,3.8191,3.8247,3.834,3.8392,3.8483,3.8559,3.8702,3.8759,3.8845,3.8851,3.8907,3.8864,3.8852,3.8852,3.8847,3.8854,3.8914,3.8916,3.8917,3.8917,0,3.7871,3.7893,3.7971,3.8058,3.8123,3.8194,3.8264,3.8304,3.836,3.8422,3.8514,3.8572,3.8688,3.8778,3.8869,3.8915,3.8926,3.893,3.8948,3.8939,3.8919,3.893,3.877,3.8926,3.8925,3.8925,3.8924,3.8924,3.7951,3.8013,3.8089,3.8176,3.8233,3.8298,3.8361,3.8411,3.8489,3.8586,3.8607,3.8705,3.878,3.8903,3.8951,3.9028,3.9017,3.9043,3.9049,3.9055,3.9057,3.8907,3.9045,3.9044,3.9044,3.9044,3.9044,0,3.8073,3.8123,3.8202,3.83,3.8368,3.8372,3.8449,3.8506,3.8591,3.866,3.8734,3.884,3.8928,3.8992,3.9081,3.913,3.9137,3.9152,3.9149,3.9159,3.9062,3.9038,3.9145,3.9144,3.9144,3.9144,3.9144,3.9144,3.8145,3.8249,3.8279,3.8411,3.8461,3.8556,3.86,3.866,3.8716,3.8833,3.8906,3.8947,3.9014,3.9108,3.9189,3.9205,3.9237,3.9251,3.9268,3.9177,3.9166,3.9156,3.9133,3.9258,3.9258,3.9359,3.936,3.9361]}]]